Weather History for KCBM - October, 2012

Change the Weather History Date:

Wednesday, October 17, 2012

  Actual Average Record
Temperature  
Mean Temperature 63 °F -  
Max Temperature 78 °F 73 °F - (-1)
Min Temperature 48 °F 50 °F - (-1)
Degree Days  
Heating Degree Days 2    
Growing Degree Days 13 (Base 50)    
Moisture  
Dew Point 56 °F    
Average Humidity 73    
Maximum Humidity 100    
Minimum Humidity 39    
Precipitation  
Precipitation 0.14 in - - ()
Sea Level Pressure  
Sea Level Pressure 29.76 in    
Wind  
Wind Speed 7 mph (South)    
Max Wind Speed 18 mph    
Max Gust Speed 30 mph    
Visibility 9 miles    
Events Rain , Thunderstorm    
Averages and records for this station are not official NWS values.
T = Trace of Precipitation, MM = Missing Value Source: NWS Daily Summary

Daily Weather History Graph

Daily Weather History Graph

Search for Another Location

Airport or City:

Trip Planner

Search our weather history database for the weather conditions in past years. The results will help you decide how hot, cold, wet, or windy it might be!

Date:

Astronomy

Oct. 17, 2012 Rise Set
Actual Time 7:00 AM CDT 6:16 PM CDT
Civil Twilight 6:35 AM CDT 6:42 PM CDT
Nautical Twilight 6:06 AM CDT 7:11 PM CDT
Astronomical Twilight 5:37 AM CDT 7:39 PM CDT
Moon 9:25 AM CDT (10/17) 8:01 PM CDT (10/17)
Length of Visible Light 12h 06m
Length of Day
11h 16m
Waxing Crescent, 7% of the Moon is Illuminated
Oct 17
Waxing Crescent
Oct 21
First Quarter
Oct 29
Full
Nov 6
Last Quarter
Nov 13
New

Hourly Weather History & Observations

Time (CDT) Temp. Dew Point Humidity Pressure Visibility Wind Dir Wind Speed Gust Speed Precip Events Conditions
12:55 AM 56.7 °F 53.1 °F 88% 29.88 in 10.0 mi Calm Calm - N/A   Clear
1:55 AM 51.6 °F 50.9 °F 97% 29.89 in 10.0 mi Calm Calm - N/A   Clear
2:55 AM 52.7 °F 52.7 °F 100% 29.88 in 10.0 mi Calm Calm - N/A   Clear
3:55 AM 51.3 °F 50.9 °F 99% 29.86 in 10.0 mi SE 8.1 mph - N/A   Clear
4:55 AM 50.9 °F 49.6 °F 95% 29.87 in 10.0 mi Calm Calm - N/A   Clear
5:55 AM 48.4 °F 47.8 °F 98% 29.87 in 10.0 mi Calm Calm - N/A   Clear
6:55 AM 49.5 °F 48.9 °F 98% 29.88 in 10.0 mi SE 6.9 mph - N/A   Clear
7:55 AM 53.8 °F 51.6 °F 92% 29.88 in 10.0 mi SSE 4.6 mph - N/A   Clear
8:55 AM 60.8 °F 54.1 °F 79% 29.88 in 10.0 mi SSE 5.8 mph - N/A   Clear
9:55 AM 67.8 °F 51.1 °F 55% 29.87 in 10.0 mi South 12.7 mph - N/A   Clear
10:55 AM 71.1 °F 50.2 °F 48% 29.85 in 10.0 mi SSE 16.1 mph 21.9 mph N/A   Clear
11:55 AM 73.6 °F 48.7 °F 41% 29.84 in 10.0 mi South 13.8 mph 24.2 mph N/A   Clear
12:55 PM 75.0 °F 48.7 °F 39% 29.81 in 10.0 mi South 13.8 mph - N/A   Clear
1:55 PM 76.5 °F 50.2 °F 40% 29.78 in 10.0 mi South 9.2 mph - N/A   Clear
2:55 PM 77.7 °F 51.4 °F 40% 29.75 in 10.0 mi South 12.7 mph - N/A   Clear
3:55 PM 78.1 °F 54.3 °F 44% 29.74 in 10.0 mi South 10.4 mph 18.4 mph N/A   Clear
4:55 PM 76.6 °F 56.3 °F 49% 29.73 in 10.0 mi South 9.2 mph - N/A   Overcast
5:55 PM 73.0 °F 57.0 °F 57% 29.71 in 10.0 mi SSE 10.4 mph - N/A   Partly Cloudy
6:55 PM 67.1 °F 57.7 °F 72% 29.72 in 10.0 mi SSE 6.9 mph - N/A   Clear
7:55 PM 67.1 °F 57.6 °F 71% 29.71 in 10.0 mi SSE 8.1 mph - N/A   Clear
8:55 PM 68.2 °F 56.3 °F 66% 29.68 in 10.0 mi SSE 13.8 mph - N/A   Clear
9:55 PM 69.6 °F 57.2 °F 65% 29.67 in 10.0 mi South 16.1 mph 21.9 mph N/A   Clear
10:55 PM 70.3 °F 59.5 °F 69% 29.68 in 10.0 mi South 18.4 mph 29.9 mph N/A   Mostly Cloudy
11:02 PM 69.8 °F 60.8 °F 73% 29.68 in 10.0 mi South 18.4 mph 29.9 mph N/A Rain Light Rain
11:11 PM 69.8 °F 60.8 °F 73% 29.68 in 10.0 mi South 18.4 mph 27.6 mph N/A   Mostly Cloudy
11:37 PM 69.8 °F 60.8 °F 73% 29.66 in 10.0 mi SSW 17.3 mph 28.8 mph N/A Rain Light Rain
11:44 PM 69.8 °F 62.6 °F 78% 29.66 in 6.0 mi South 16.1 mph 24.2 mph N/A Rain , Thunderstorm Light Thunderstorms and Rain
11:49 PM 68.0 °F 62.6 °F 83% 29.66 in 4.0 mi SSW 12.7 mph 24.2 mph N/A Rain , Thunderstorm Heavy Thunderstorms and Rain
11:50 PM 68.0 °F 62.6 °F 83% 29.67 in 3.0 mi South 16.1 mph 26.5 mph N/A Rain , Thunderstorm Heavy Thunderstorms and Rain
11:51 PM 68.0 °F 62.6 °F 83% 29.68 in 2.5 mi SSW 17.3 mph 26.5 mph N/A Rain , Thunderstorm Heavy Thunderstorms and Rain
11:55 PM 67.6 °F 63.3 °F 86% 29.68 in 2.5 mi SSW 10.4 mph 26.5 mph 0.14 in Rain , Thunderstorm Light Thunderstorms and Rain
11:57 PM 68.0 °F 62.6 °F 83% 29.67 in 3.0 mi SSW 13.8 mph 26.5 mph N/A Rain , Thunderstorm Light Thunderstorms and Rain
11:59 PM 68.0 °F 62.6 °F 83% 29.67 in 4.0 mi South 13.8 mph 26.5 mph N/A Rain , Thunderstorm Light Thunderstorms and Rain